EN

Hourly Weather Ludinghausen

Today, 4 December, Friday

Time Temperature Precipitation Wind Pressure Humidity
00:00 +3°C° 0 mm 6 mps 736 mmHg 74%
01:00 +3°C° 0 mm 6 mps 735 mmHg 75%
02:00 +3°C° 0 mm 6 mps 734 mmHg 76%
03:00 +3°C° 0 mm 6 mps 734 mmHg 77%
04:00 +4°C° 0 mm 6 mps 734 mmHg 77%
05:00 +4°C° 0 mm 7 mps 734 mmHg 77%
06:00 +5°C° 0 mm 7 mps 734 mmHg 77%
07:00 +5°C° 0 mm 6 mps 734 mmHg 76%
08:00 +5°C° 0 mm 6 mps 734 mmHg 76%
09:00 +6°C° 0 mm 5 mps 734 mmHg 76%
10:00 +5°C° 0 mm 6 mps 735 mmHg 74%
11:00 +7°C° 0 mm 6 mps 735 mmHg 71%
12:00 +7°C° 0 mm 6 mps 736 mmHg 69%
13:00 +7°C° 0 mm 5 mps 736 mmHg 70%
14:00 +6°C° 0 mm 5 mps 736 mmHg 72%
15:00 +6°C° 0 mm 4 mps 736 mmHg 73%
16:00 +5°C° 0 mm 4 mps 737 mmHg 75%
17:00 +5°C° 0 mm 3 mps 737 mmHg 76%
18:00 +5°C° 0 mm 3 mps 738 mmHg 78%
19:00 +4°C° 0 mm 3 mps 738 mmHg 80%
20:00 +4°C° 0 mm 3 mps 739 mmHg 82%
21:00 +4°C° 0 mm 2 mps 739 mmHg 84%
22:00 +4°C° 0 mm 2 mps 740 mmHg 84%
23:00 +4°C° 0 mm 2 mps 740 mmHg 84%

Tomorrow, 5 December, Saturday

Time Temperature Precipitation Wind Pressure Humidity
00:00 +3°C° 0 mm 2 mps 740 mmHg 84%
01:00 +4°C° 0 mm 1 mps 740 mmHg 85%
02:00 +4°C° 0 mm 1 mps 740 mmHg 86%
03:00 +4°C° 0 mm 1 mps 740 mmHg 87%
04:00 +3°C° 0 mm 0 mps 741 mmHg 87%
05:00 +3°C° 0 mm 0 mps 741 mmHg 86%
06:00 +3°C° 0 mm 0 mps 741 mmHg 86%
07:00 +3°C° 0 mm 0 mps 742 mmHg 84%
08:00 +4°C° 0 mm 1 mps 742 mmHg 83%
09:00 +5°C° 0 mm 1 mps 742 mmHg 81%
10:00 +5°C° 0 mm 1 mps 743 mmHg 79%
11:00 +6°C° 0 mm 1 mps 743 mmHg 76%
12:00 +7°C° 0 mm 1 mps 743 mmHg 74%
13:00 +6°C° 0 mm 1 mps 743 mmHg 76%
14:00 +6°C° 0 mm 1 mps 743 mmHg 79%
15:00 +5°C° 0 mm 1 mps 743 mmHg 81%
16:00 +5°C° 0 mm 1 mps 744 mmHg 83%
17:00 +5°C° 0 mm 1 mps 744 mmHg 84%
18:00 +5°C° 0 mm 1 mps 745 mmHg 86%
19:00 +4°C° 0 mm 1 mps 745 mmHg 87%
20:00 +4°C° 0 mm 1 mps 745 mmHg 88%
21:00 +4°C° 0 mm 1 mps 745 mmHg 89%
22:00 +4°C° 0 mm 1 mps 745 mmHg 88%
23:00 +4°C° 0 mm 1 mps 746 mmHg 88%

Day after tomorrow, 6 December, Sunday

Time Temperature Precipitation Wind Pressure Humidity
00:00 +3°C° 0 mm 1 mps 746 mmHg 88%
01:00 +3°C° 0 mm 1 mps 746 mmHg 87%
02:00 +3°C° 0 mm 1 mps 746 mmHg 86%
03:00 +3°C° 0 mm 1 mps 746 mmHg 86%
04:00 +2°C° 0 mm 2 mps 746 mmHg 86%
05:00 +2°C° 0 mm 2 mps 746 mmHg 86%
06:00 +2°C° 0 mm 2 mps 747 mmHg 85%
07:00 +2°C° 0 mm 2 mps 747 mmHg 85%
08:00 +3°C° 0 mm 2 mps 747 mmHg 84%
09:00 +4°C° 0 mm 1 mps 747 mmHg 83%
10:00 +3°C° 0 mm 2 mps 747 mmHg 81%
11:00 +4°C° 0 mm 2 mps 747 mmHg 78%
12:00 +4°C° 0 mm 3 mps 747 mmHg 75%
13:00 +5°C° 0 mm 2 mps 746 mmHg 78%
14:00 +4°C° 0 mm 2 mps 746 mmHg 80%
15:00 +4°C° 0 mm 2 mps 746 mmHg 82%
16:00 +4°C° 0.6 mm 2 mps 745 mmHg 86%
17:00 +2°C° 0.6 mm 3 mps 745 mmHg 89%
18:00 +2°C° 0.6 mm 3 mps 745 mmHg 92%
19:00 +2°C° 1.3 mm 3 mps 745 mmHg 93%
20:00 +1°C° 1.3 mm 4 mps 744 mmHg 93%
21:00 +1°C° 1.3 mm 4 mps 743 mmHg 93%
22:00 +2°C° 0.3 mm 3 mps 743 mmHg 94%
23:00 +2°C° 0.3 mm 3 mps 742 mmHg 94%

7 December, Monday

Time Temperature Precipitation Wind Pressure Humidity
00:00 +3°C° 0.3 mm 2 mps 742 mmHg 94%
01:00 +3°C° 0.1 mm 2 mps 742 mmHg 94%
02:00 +4°C° 0.1 mm 1 mps 741 mmHg 95%
03:00 +4°C° 0.1 mm 1 mps 741 mmHg 95%
04:00 +4°C° 0.2 mm 1 mps 741 mmHg 94%
05:00 +4°C° 0.2 mm 1 mps 741 mmHg 94%
06:00 +5°C° 0.2 mm 1 mps 741 mmHg 93%
07:00 +5°C° 0 mm 1 mps 741 mmHg 92%
08:00 +4°C° 0 mm 2 mps 741 mmHg 91%
09:00 +4°C° 0 mm 2 mps 741 mmHg 90%
10:00 +5°C° 0 mm 2 mps 741 mmHg 88%
11:00 +5°C° 0 mm 3 mps 741 mmHg 86%
12:00 +5°C° 0 mm 3 mps 741 mmHg 84%
13:00 +5°C° 0 mm 3 mps 742 mmHg 85%
14:00 +5°C° 0 mm 3 mps 742 mmHg 85%
15:00 +5°C° 0 mm 4 mps 742 mmHg 86%
16:00 +5°C° 0.3 mm 4 mps 742 mmHg 87%
17:00 +5°C° 0.3 mm 5 mps 742 mmHg 88%
18:00 +5°C° 0.3 mm 5 mps 743 mmHg 89%
19:00 +5°C° 0.5 mm 5 mps 743 mmHg 89%
20:00 +5°C° 0.5 mm 5 mps 743 mmHg 89%
21:00 +5°C° 0.5 mm 5 mps 744 mmHg 89%
22:00 +3°C° 0.6 mm 5 mps 744 mmHg 89%
23:00 +3°C° 0.6 mm 5 mps 744 mmHg 89%

8 December, Tuesday

Time Temperature Precipitation Wind Pressure Humidity
00:00 +3°C° 0.6 mm 5 mps 745 mmHg 90%
01:00 +3°C° 0 mm 5 mps 745 mmHg 87%
02:00 +3°C° 0 mm 4 mps 746 mmHg 85%
03:00 +3°C° 0 mm 4 mps 746 mmHg 83%
04:00 +3°C° 0 mm 3 mps 746 mmHg 83%
05:00 +3°C° 0 mm 3 mps 747 mmHg 84%
06:00 +3°C° 0 mm 2 mps 747 mmHg 84%
07:00 +3°C° 0 mm 2 mps 747 mmHg 84%
08:00 +2°C° 0 mm 3 mps 748 mmHg 84%
09:00 +2°C° 0 mm 3 mps 748 mmHg 85%
10:00 +3°C° 0 mm 3 mps 748 mmHg 81%
11:00 +5°C° 0 mm 2 mps 748 mmHg 76%
12:00 +5°C° 0 mm 2 mps 748 mmHg 72%
13:00 +5°C° 0 mm 2 mps 749 mmHg 74%
14:00 +5°C° 0 mm 2 mps 749 mmHg 76%
15:00 +4°C° 0 mm 2 mps 749 mmHg 78%
16:00 +4°C° 0 mm 2 mps 749 mmHg 80%
17:00 +3°C° 0 mm 2 mps 749 mmHg 82%
18:00 +3°C° 0 mm 2 mps 749 mmHg 85%
19:00 +3°C° 0 mm 2 mps 750 mmHg 85%
20:00 +2°C° 0 mm 2 mps 750 mmHg 86%
21:00 +2°C° 0 mm 2 mps 750 mmHg 86%
22:00 +2°C° 0 mm 2 mps 750 mmHg 87%
23:00 +2°C° 0 mm 2 mps 750 mmHg 87%

9 December, Wednesday

Time Temperature Precipitation Wind Pressure Humidity
00:00 +2°C° 0 mm 2 mps 750 mmHg 87%
01:00 +2°C° 0 mm 2 mps 750 mmHg 88%
02:00 +1°C° 0 mm 2 mps 750 mmHg 89%
03:00 +1°C° 0 mm 2 mps 750 mmHg 90%
04:00 +1°C° 0 mm 2 mps 750 mmHg 90%
05:00 +1°C° 0 mm 2 mps 750 mmHg 91%
06:00 +1°C° 0 mm 2 mps 750 mmHg 91%
07:00 +1°C° 0 mm 2 mps 750 mmHg 90%
08:00 +1°C° 0 mm 2 mps 751 mmHg 88%
09:00 +2°C° 0 mm 2 mps 751 mmHg 87%
10:00 +2°C° 0 mm 2 mps 751 mmHg 87%
11:00 +3°C° 0 mm 2 mps 751 mmHg 87%
12:00 +3°C° 0 mm 2 mps 751 mmHg 87%
13:00 +3°C° 0 mm 2 mps 751 mmHg 88%
14:00 +3°C° 0 mm 2 mps 751 mmHg 89%
15:00 +4°C° 0 mm 1 mps 751 mmHg 90%
16:00 +4°C° 0 mm 1 mps 751 mmHg 90%
17:00 +3°C° 0 mm 2 mps 751 mmHg 91%
18:00 +3°C° 0 mm 2 mps 752 mmHg 91%
19:00 +4°C° 0 mm 1 mps 752 mmHg 91%
20:00 +4°C° 0 mm 1 mps 752 mmHg 91%
21:00 +4°C° 0 mm 1 mps 752 mmHg 91%
22:00 +4°C° 0 mm 1 mps 752 mmHg 92%
23:00 +4°C° 0 mm 1 mps 752 mmHg 92%
Show more